Location: Arroyo Retuerta
(40.5469°N, 4.3534°W)
Time: 06:05:15
(UTC+00:00)

COSMOS 2487 - Pass Details

Date: 01 June 2020
Orbit: 440 x 444 km, 74.7° (Epoch: 05 July)

Event Time Altitude Azimuth Distance (km) Brightness Sun altitude
Rises 23:06:04 0° 351° (N) 2,451 7.5 -25.2°
Reaches altitude 10° 23:08:18 10° 2° (N) 1,575 6.1 -25.3°
Enters shadow 23:10:21 26° 30° (NNE) 926 4.3 -25.4°
